OBJECT J, 63218

Orbit data source: Space-Track

You're viewing an Uncataloged Satellite

Recently launched and/or uncataloged satellites may have evolving metadata. Metadata may include but not limited to: Owner, Maufacturer, Bus, Motor, and Mission.

OBJECT J, 63218 is a satellite in SSO that was launched on Sat, 15 Mar 2025 UTC via an FALCON 9 launch vehicle from the Air Force Western Test Range (AFWTR). Unknown objects in Earth's orbit typically refer to objects detected orbiting the Earth but have not yet been identified or cataloged. These objects could be anything from previously untracked satellites, spent rocket stages, debris from satellite collisions, or even natural meteoroids temporarily captured by Earth's gravity.

Loading next visibility...
Identifier
63218, 2025-052J
Orbit
SSO
Last TLE update
4 hours ago
Origin
Flag of TBDHEX20 (TBD)
Manufacturer
HEX20
Mission
Operational Commercial Technology
Bus & Motor
CUBESAT 3U, Unknown motor
Mass
5 kg wet, 5 kg dry
Launch date (UTC)
2025-03-15 (4 months ago)
Launch vehicle
FALCON 9
Launch site
Air Force Western Test Range (AFWTR)
Object type
Unknown
Shape & HBR
Box, 0.1 m
Radar Cross Section
0.035 m², Small (<0.1 m²)

Expand to show TLE details & history

TLE from 4 hours ago
0 OBJECT J
1 63218U 25052J   25209.63821122  .00010578  00000-0  47654-3 0  9997
2 63218  97.4233 102.8755 0004047 159.4645 200.6754 15.21231437 20709
Epoch: 2025-07-28T15:19Z
TLE epoch observation values (Epoch: 2025-07-28T15:19:01.449Z)
Latitude
-0.00003°
Longitude
-73.42381°
Altitude
507.822 km
Speed
7.609 km/s
True Right ascension
06h 51m 30s
True Declination
0° 00' 00"
Sunlit
Object was in daylight at epoch
Visualization orbit readout
Latitude
-80.08766°
Longitude
58.89446°
Altitude
530.918 km
Speed
7.596 km/s
Apparent Right ascension
20h 11m 59s
Apparent Declination
-64° 18' 15"
Sunlit
Object is in daylight
Visualization observer readout
Local Sidereal Time
09:04:06
Azimuth
166.899° S
Elevation
-64.45°
Doppler factor
1
Orbital elements
Apogee altitude
501.873 km
Perigee altitude
496.307 km
Semi-major axis
6,877.227 km
Eccentricity
0.0004
Inclination
97.4233°
RAAN
102.8755°
Arg. of periapsis
159.4645°
True anomaly
200.65903°
Mean anomaly
200.6754°
Eccentric anomaly
200.66722°
Mean motion
3.8056 °/min
Orbital period
94.6 mins
BSTAR
0.00047654
Loading maneuver chart data...
Loading SW <> Apogee altitude chart data...
Loading historical data...
Loading historical data...
Loading historical data...
Loading historical data...
Loading historical data...
Loading historical data...
Loading historical data...
|